User: anonymous   Login
Location: Unspecified
(0.0000°N, 0.0000°E)
Time: 19:47:37
(UTC+00:00)
Language:

RESURS DK-1 - Orbit

View from above orbital plane
View from above orbital plane
View from above satellite
View from above satellite

Ground track
Ground track

The orbit data is extracted from the following two-line orbital elements,

1 29228U 06021A   15115.47070786  .00001626  00000-0  13310-3 0  9990
2 29228 069.9368 291.0589 0002069 133.8755 317.7416 15.01435699490431
Epoch (UTC): 25 April 2015 11:17:49
Eccentricity: 0.0002069
inclination: 69.9368°
perigee height: 561 km
apogee height: 564 km
right ascension of ascending node: 291.0589°
argument of perigee: 133.8755°
revolutions per day: 15.01435699
mean anomaly at epoch: 317.7416°
orbit number at epoch: 49043

The dashed part of the orbit path shows where the satellite is in the earth's shadow,  

DLR